User: anonymous   Login
Location: Newark
(48.5667°N, 12.8167°E)
Time: 11:40:59
(UTC+00:00)
Language:

SPROUT - Orbit

View from above orbital plane
View from above orbital plane
View from above satellite
View from above satellite

Ground track
Ground track

The orbit data is extracted from the following two-line orbital elements,

1 39770U 14029E   19324.15552026  .00000672  00000-0  80253-4 0  9994
2 39770  97.8924  66.5141 0007934 303.8720  56.1721 14.87508621297794
Epoch (UTC): 20 November 2019 03:43:56
Eccentricity: 0.0007934
inclination: 97.8924°
perigee height: 600 km
apogee height: 611 km
right ascension of ascending node: 66.5141°
argument of perigee: 303.8720°
revolutions per day: 14.87508621
mean anomaly at epoch: 56.1721°
orbit number at epoch: 29779

The dashed part of the orbit path shows where the satellite is in the earth's shadow,  

DLR